FRS123 EDNY-EDNL

Flight info

Callsign FRS123
Flight time 0h 16m
Altitude 3500
Route DCT
Aircraft PA24/L-SDGRY/S

Departure

Time 2026-05-04 07:12
Airport Bodensee Airport Friedrichshafen (EDNY)

Arrival

Time 2026-05-04 07:29
Airport Leutkirch-Unterzeil Airfield (EDNL)
Time Latitude Longitude Altitude Speed Heading
2026-05-04 07:06 47.66868 9.51271 1354 ft 0 kts 139°
2026-05-04 07:08 47.66894 9.51212 1353 ft 4 kts 333°
2026-05-04 07:09 47.66938 9.51174 1350 ft 9 kts 315°
2026-05-04 07:09 47.66926 9.51093 1348 ft 13 kts 239°
2026-05-04 07:09 47.66867 9.50941 1346 ft 18 kts 240°
2026-05-04 07:09 47.66808 9.50788 1343 ft 17 kts 240°
2026-05-04 07:10 47.66771 9.50692 1345 ft 0 kts 240°
2026-05-04 07:10 47.66769 9.50688 1345 ft 4 kts 240°
2026-05-04 07:12 47.67475 9.52050 1451 ft 96 kts 63°
2026-05-04 07:12 47.67632 9.52655 1643 ft 97 kts 84°
2026-05-04 07:12 47.67259 9.53464 1898 ft 100 kts 152°
2026-05-04 07:12 47.66647 9.53948 2221 ft 101 kts 147°
2026-05-04 07:13 47.66048 9.54499 2533 ft 100 kts 144°
2026-05-04 07:13 47.65462 9.55068 2799 ft 102 kts 143°
2026-05-04 07:13 47.64678 9.55814 3143 ft 101 kts 143°
2026-05-04 07:14 47.62348 9.57898 3704 ft 131 kts 147°
2026-05-04 07:14 47.61508 9.58590 3723 ft 144 kts 149°
2026-05-04 07:15 47.60745 9.59599 3673 ft 155 kts 116°
2026-05-04 07:15 47.60683 9.61150 3684 ft 156 kts 68°
2026-05-04 07:15 47.61320 9.62432 3719 ft 155 kts 48°
2026-05-04 07:15 47.62019 9.63631 3702 ft 152 kts 48°
2026-05-04 07:16 47.62745 9.64754 3692 ft 149 kts 46°
2026-05-04 07:16 47.63453 9.65827 3695 ft 146 kts 46°
2026-05-04 07:16 47.64157 9.66897 3697 ft 144 kts 46°
2026-05-04 07:16 47.64857 9.67949 3700 ft 143 kts 46°
2026-05-04 07:17 47.65557 9.68993 3704 ft 143 kts 46°
2026-05-04 07:17 47.66262 9.70042 3703 ft 144 kts 46°
2026-05-04 07:17 47.66962 9.71103 3702 ft 144 kts 46°
2026-05-04 07:17 47.67665 9.72160 3701 ft 144 kts 47°
2026-05-04 07:18 47.68367 9.73212 3699 ft 143 kts 46°
2026-05-04 07:18 47.69074 9.74234 3698 ft 145 kts 47°
2026-05-04 07:18 47.69797 9.75266 3700 ft 144 kts 46°
2026-05-04 07:18 47.70499 9.76320 3701 ft 144 kts 47°
2026-05-04 07:19 47.71198 9.77395 3702 ft 144 kts 47°
2026-05-04 07:19 47.71906 9.78457 3700 ft 145 kts 46°
2026-05-04 07:19 47.72629 9.79496 3699 ft 145 kts 45°
2026-05-04 07:19 47.73282 9.80625 3701 ft 144 kts 57°
2026-05-04 07:20 47.73801 9.81893 3703 ft 142 kts 62°
2026-05-04 07:20 47.74279 9.83156 3731 ft 140 kts 61°
2026-05-04 07:20 47.74751 9.84410 3714 ft 142 kts 62°
2026-05-04 07:20 47.75229 9.85698 3704 ft 142 kts 62°
2026-05-04 07:22 47.78565 9.94697 3605 ft 143 kts 61°
2026-05-04 07:22 47.79057 9.95994 3530 ft 144 kts 62°
2026-05-04 07:23 47.79549 9.97260 3503 ft 140 kts 61°
2026-05-04 07:23 47.80040 9.98513 3418 ft 140 kts 62°
2026-05-04 07:23 47.80513 9.99689 3430 ft 129 kts 61°
2026-05-04 07:23 47.80957 10.00832 3246 ft 128 kts 62°
2026-05-04 07:24 47.81406 10.01978 3062 ft 128 kts 61°
2026-05-04 07:24 47.81842 10.03108 2886 ft 126 kts 60°
2026-05-04 07:24 47.82283 10.04257 2791 ft 122 kts 62°
2026-05-04 07:24 47.82662 10.05326 2768 ft 111 kts 60°
2026-05-04 07:25 47.83224 10.05992 2768 ft 102 kts 18°
2026-05-04 07:26 47.85174 10.01706 2812 ft 87 kts 215°
2026-05-04 07:27 47.84713 10.01167 2807 ft 83 kts 213°
2026-05-04 07:27 47.84336 10.00545 2789 ft 82 kts 234°
2026-05-04 07:27 47.84068 9.99815 2757 ft 79 kts 252°
2026-05-04 07:27 47.84172 9.99062 2743 ft 75 kts 311°
2026-05-04 07:28 47.84612 9.98670 2677 ft 73 kts 357°
2026-05-04 07:28 47.84979 9.99045 2618 ft 71 kts 63°
2026-05-04 07:28 47.85186 9.99733 2500 ft 73 kts 66°
2026-05-04 07:28 47.85428 10.00394 2316 ft 74 kts 57°
2026-05-04 07:29 47.85713 10.01031 2111 ft 70 kts 57°
2026-05-04 07:29 47.85932 10.01504 2105 ft 44 kts 56°
2026-05-04 07:29 47.86059 10.01796 2101 ft 27 kts 57°
2026-05-04 07:29 47.86142 10.01980 2098 ft 11 kts 20°
2026-05-04 07:30 47.86167 10.01956 2099 ft 7 kts 239°
2026-05-04 07:30 47.86142 10.01899 2098 ft 0 kts 236°
2026-05-04 07:30 47.86134 10.01881 2099 ft 7 kts 237°
2026-05-04 07:30 47.86094 10.01784 2101 ft 15 kts 239°
2026-05-04 07:31 47.86039 10.01660 2100 ft 9 kts 234°
2026-05-04 07:31 47.86012 10.01598 2102 ft 8 kts 252°
2026-05-04 07:33 47.85864 10.01085 2104 ft 5 kts 263°
2026-05-04 07:33 47.85842 10.01070 2104 ft 2 kts 145°
2026-05-04 07:33 47.85843 10.01091 2104 ft 0 kts 57°